Location: Newark
(52.3500°N, 175.9667°E)
Time: 00:24:00
(UTC+00:00)

Vanguard 1 - Pass Details

Date: 28 April 2021
Orbit: 649 x 3834 km, 34.2° (Epoch: 04 May)

Event Time Altitude Azimuth Distance (km) Brightness Sun altitude
Rises 01:22:59 0° 234° (SW) 4,879 14.2 49.4°
Reaches altitude 10° 01:25:59 10° 226° (SW) 4,251 14.2 49.2°
Maximum altitude 01:36:56 37° 164° (SSE) 3,651 14.0 48.4°
Drops below altitude 10° 01:54:15 10° 107° (ESE) 6,647 14.2 46.9°
Sets 02:00:31 0° 101° (ESE) 7,891 14.5 46.3°
